Time,TemperatureF,DewpointF,PressureIn,WindDirection,WindDirectionDegrees,WindSpeedMPH,WindSpeedGustMPH,Humidity,HourlyPrecipIn,Conditions,Clouds,dailyrainin,SoftwareType,DateUTC
2013-07-04 00:00:00,73.6,71.8,30.21,WSW,257,5.0,14.0,94,0.00,,CLR,0.00,VWS V14.01,2013-07-04 04:00:00,
2013-07-04 00:01:00,73.6,71.8,30.21,West,270,2.0,8.0,94,0.00,,BKN008,0.00,VWS V14.01,2013-07-04 04:01:00,
2013-07-04 00:06:00,73.6,71.8,30.21,West,273,8.0,12.0,94,0.00,,BKN008,0.00,VWS V14.01,2013-07-04 04:06:00,
2013-07-04 00:10:00,73.5,71.7,30.21,NW,309,2.0,12.0,94,0.00,,CLR,0.00,VWS V14.01,2013-07-04 04:10:00,
2013-07-04 00:11:00,73.6,71.8,30.21,West,260,4.0,8.0,94,0.00,,BKN008,0.00,VWS V14.01,2013-07-04 04:11:00,
2013-07-04 00:16:00,73.5,71.7,30.21,WSW,250,4.0,12.0,94,0.00,,BKN008,0.00,VWS V14.01,2013-07-04 04:16:00,
2013-07-04 00:20:00,73.5,71.7,30.21,West,277,4.0,12.0,94,0.00,,CLR,0.00,VWS V14.01,2013-07-04 04:20:00,
2013-07-04 00:21:00,73.4,71.6,30.21,West,278,7.0,12.0,94,0.00,,BKN008,0.00,VWS V14.01,2013-07-04 04:21:00,
2013-07-04 00:26:00,73.3,71.5,30.22,WNW,284,6.0,13.0,94,0.00,,BKN008,0.00,VWS V14.01,2013-07-04 04:26:00,
2013-07-04 00:30:00,73.3,71.8,30.21,West,260,4.0,13.0,95,0.00,,CLR,0.00,VWS V14.01,2013-07-04 04:30:00,
2013-07-04 00:31:00,73.3,71.8,30.21,West,274,4.0,6.0,95,0.00,,BKN008,0.00,VWS V14.01,2013-07-04 04:31:00,
2013-07-04 00:36:00,73.2,71.7,30.21,WNW,288,5.0,14.0,95,0.00,,BKN008,0.00,VWS V14.01,2013-07-04 04:36:00,
2013-07-04 00:40:00,73.2,71.7,30.21,West,276,7.0,14.0,95,0.00,,CLR,0.00,VWS V14.01,2013-07-04 04:40:00,
2013-07-04 00:41:00,73.1,71.6,30.21,WSW,239,6.0,9.0,95,0.00,,BKN008,0.00,VWS V14.01,2013-07-04 04:41:00,
2013-07-04 00:46:00,73.1,71.6,30.21,WSW,250,6.0,11.0,95,0.00,,BKN008,0.00,VWS V14.01,2013-07-04 04:46:00,
2013-07-04 00:50:00,73.1,71.6,30.21,South,173,1.0,13.0,95,0.00,,CLR,0.00,VWS V14.01,2013-07-04 04:50:00,
2013-07-04 00:51:00,73.1,71.6,30.21,SSE,168,5.0,7.0,95,0.00,,BKN008,0.00,VWS V14.01,2013-07-04 04:51:00,
2013-07-04 00:56:00,73.1,71.6,30.21,SSW,198,9.0,10.0,95,0.00,,BKN008,0.00,VWS V14.01,2013-07-04 04:56:00,
2013-07-04 01:00:00,73.1,71.6,30.21,SSW,208,6.0,10.0,95,0.00,,CLR,0.00,VWS V14.01,2013-07-04 05:00:00,
2013-07-04 01:01:00,73.1,71.6,30.21,WSW,245,4.0,10.0,95,0.00,,OVC008,0.00,VWS V14.01,2013-07-04 05:01:00,
2013-07-04 01:06:00,73.2,71.7,30.21,WSW,239,3.0,10.0,95,0.00,,OVC008,0.00,VWS V14.01,2013-07-04 05:06:00,
2013-07-04 01:10:00,73.2,71.7,30.21,SW,225,7.0,11.0,95,0.00,,CLR,0.00,VWS V14.01,2013-07-04 05:10:00,
2013-07-04 01:11:00,73.2,71.7,30.21,WSW,252,6.0,7.0,95,0.00,,OVC008,0.00,VWS V14.01,2013-07-04 05:11:00,
2013-07-04 01:16:00,73.1,71.6,30.21,WSW,256,7.0,13.0,95,0.00,,OVC008,0.00,VWS V14.01,2013-07-04 05:16:00,
2013-07-04 01:20:00,73.1,71.6,30.21,WNW,290,5.0,13.0,95,0.00,,CLR,0.00,VWS V14.01,2013-07-04 05:20:00,
2013-07-04 01:21:00,73.1,71.6,30.21,West,266,5.0,8.0,95,0.00,,OVC008,0.00,VWS V14.01,2013-07-04 05:21:00,
2013-07-04 01:26:00,73.0,71.5,30.21,West,266,7.0,11.0,95,0.00,,OVC008,0.00,VWS V14.01,2013-07-04 05:26:00,
2013-07-04 01:30:00,72.9,71.4,30.21,SW,233,10.0,12.0,95,0.00,,CLR,0.00,VWS V14.01,2013-07-04 05:30:00,
2013-07-04 01:31:00,72.9,71.4,30.21,SW,218,3.0,10.0,95,0.00,,OVC008,0.00,VWS V14.01,2013-07-04 05:31:00,
2013-07-04 01:36:00,72.9,71.4,30.21,WSW,252,2.0,10.0,95,0.00,,OVC008,0.00,VWS V14.01,2013-07-04 05:36:00,
2013-07-04 01:40:00,72.9,71.4,30.21,West,267,4.0,10.0,95,0.00,,CLR,0.00,VWS V14.01,2013-07-04 05:40:00,
2013-07-04 01:41:00,72.9,71.4,30.21,SSW,197,2.0,9.0,95,0.00,,OVC006,0.00,VWS V14.01,2013-07-04 05:41:00,
2013-07-04 01:46:00,72.9,71.4,30.21,WSW,240,2.0,11.0,95,0.00,,OVC006,0.00,VWS V14.01,2013-07-04 05:46:00,
2013-07-04 01:50:00,72.9,71.4,30.21,WSW,257,2.0,11.0,95,0.00,,CLR,0.00,VWS V14.01,2013-07-04 05:50:00,
2013-07-04 01:51:00,72.9,71.4,30.21,West,278,1.0,4.0,95,0.00,,OVC006,0.00,VWS V14.01,2013-07-04 05:51:00,
2013-07-04 01:56:00,72.8,71.3,30.21,WSW,242,4.0,11.0,95,0.00,,OVC006,0.00,VWS V14.01,2013-07-04 05:56:00,
2013-07-04 02:00:00,72.7,71.2,30.21,SSW,205,3.0,13.0,95,0.00,,CLR,0.00,VWS V14.01,2013-07-04 06:00:00,
2013-07-04 02:01:00,72.7,71.2,30.20,WSW,249,3.0,9.0,95,0.00,,OVC006,0.00,VWS V14.01,2013-07-04 06:01:00,
2013-07-04 02:06:00,72.6,71.1,30.20,WSW,246,6.0,9.0,95,0.00,,OVC006,0.00,VWS V14.01,2013-07-04 06:06:00,
2013-07-04 02:10:00,72.6,71.1,30.20,West,277,2.0,9.0,95,0.00,,CLR,0.00,VWS V14.01,2013-07-04 06:10:00,
2013-07-04 02:11:00,72.6,71.1,30.20,West,264,2.0,4.0,95,0.00,,OVC006,0.00,VWS V14.01,2013-07-04 06:11:00,
2013-07-04 02:16:00,72.5,71.3,30.20,WNW,285,7.0,11.0,96,0.00,,OVC006,0.00,VWS V14.01,2013-07-04 06:16:00,
2013-07-04 02:20:00,72.5,71.3,30.20,WSW,255,6.0,11.0,96,0.00,,CLR,0.00,VWS V14.01,2013-07-04 06:20:00,
2013-07-04 02:21:00,72.5,71.3,30.20,WNW,287,6.0,9.0,96,0.00,,OVC006,0.00,VWS V14.01,2013-07-04 06:21:00,
2013-07-04 02:26:00,72.4,71.2,30.20,West,262,2.0,9.0,96,0.00,,OVC006,0.00,VWS V14.01,2013-07-04 06:26:00,
2013-07-04 02:30:00,72.4,71.2,30.20,SW,215,4.0,10.0,96,0.00,,CLR,0.00,VWS V14.01,2013-07-04 06:30:00,
2013-07-04 02:31:00,72.4,71.2,30.20,West,271,3.0,4.0,96,0.00,,OVC006,0.00,VWS V14.01,2013-07-04 06:31:00,
2013-07-04 02:36:00,72.4,71.2,30.20,SW,219,2.0,11.0,96,0.00,,OVC006,0.00,VWS V14.01,2013-07-04 06:36:00,
2013-07-04 02:40:00,72.3,71.1,30.20,WNW,291,5.0,11.0,96,0.00,,CLR,0.00,VWS V14.01,2013-07-04 06:40:00,
2013-07-04 02:41:00,72.3,71.1,30.20,SW,235,6.0,7.0,96,0.00,,OVC006,0.00,VWS V14.01,2013-07-04 06:41:00,
2013-07-04 02:46:00,72.3,71.1,30.20,SSW,210,5.0,7.0,96,0.00,,OVC006,0.00,VWS V14.01,2013-07-04 06:46:00,
2013-07-04 02:50:00,72.2,71.0,30.20,West,269,3.0,7.0,96,0.00,,CLR,0.00,VWS V14.01,2013-07-04 06:50:00,
2013-07-04 02:51:00,72.3,71.1,30.20,West,266,3.0,4.0,96,0.00,,OVC006,0.00,VWS V14.01,2013-07-04 06:51:00,
2013-07-04 02:56:00,72.2,71.0,30.19,West,276,2.0,5.0,96,0.00,,OVC006,0.00,VWS V14.01,2013-07-04 06:56:00,
2013-07-04 03:00:00,72.2,71.0,30.19,West,259,3.0,6.0,96,0.00,,CLR,0.00,VWS V14.01,2013-07-04 07:00:00,
2013-07-04 03:01:00,72.2,71.0,30.19,WSW,248,2.0,3.0,96,0.00,,OVC006,0.00,VWS V14.01,2013-07-04 07:01:00,
2013-07-04 03:06:00,72.2,71.0,30.19,WSW,255,1.0,4.0,96,0.00,,OVC006,0.00,VWS V14.01,2013-07-04 07:06:00,
2013-07-04 03:10:00,72.2,71.0,30.19,WNW,297,0.0,6.0,96,0.00,,BKN011,0.00,VWS V14.01,2013-07-04 07:10:00,
2013-07-04 03:11:00,72.2,71.0,30.19,West,272,1.0,2.0,96,0.00,,OVC006,0.00,VWS V14.01,2013-07-04 07:11:00,
2013-07-04 03:16:00,72.2,71.0,30.19,WNW,284,2.0,5.0,96,0.00,,OVC006,0.00,VWS V14.01,2013-07-04 07:16:00,
2013-07-04 03:20:00,72.2,71.0,30.19,West,278,1.0,5.0,96,0.00,,CLR,0.00,VWS V14.01,2013-07-04 07:20:00,
2013-07-04 03:21:00,72.2,71.0,30.19,WSW,253,1.0,3.0,96,0.00,,OVC006,0.00,VWS V14.01,2013-07-04 07:21:00,
2013-07-04 03:26:00,72.2,71.0,30.19,West,261,0.0,7.0,96,0.00,,OVC006,0.00,VWS V14.01,2013-07-04 07:26:00,
2013-07-04 03:30:00,72.2,71.0,30.19,WNW,287,1.0,4.0,96,0.00,,OVC006,0.00,VWS V14.01,2013-07-04 07:30:00,
2013-07-04 03:35:00,72.1,70.9,30.19,West,262,2.0,4.0,96,0.00,,OVC006,0.00,VWS V14.01,2013-07-04 07:35:00,
2013-07-04 03:40:00,72.1,70.9,30.19,SW,222,2.0,2.0,96,0.00,,OVC006,0.00,VWS V14.01,2013-07-04 07:40:00,
2013-07-04 03:45:00,72.1,70.9,30.19,WSW,245,1.0,8.0,96,0.00,,OVC006,0.00,VWS V14.01,2013-07-04 07:45:00,
2013-07-04 03:50:00,72.1,70.9,30.19,SW,236,3.0,3.0,96,0.00,,,0.00,VWS V14.01,2013-07-04 07:50:00,
2013-07-04 03:55:00,72.0,70.8,30.19,West,259,2.0,5.0,96,0.00,,,0.00,VWS V14.01,2013-07-04 07:55:00,
2013-07-04 04:00:00,72.0,70.8,30.19,SW,224,3.0,4.0,96,0.00,,,0.00,VWS V14.01,2013-07-04 08:00:00,
2013-07-04 04:05:00,72.0,70.8,30.19,South,173,1.0,5.0,96,0.00,,,0.00,VWS V14.01,2013-07-04 08:05:00,
2013-07-04 04:10:00,72.0,70.8,30.19,SSE,166,0.0,1.0,96,0.00,,,0.00,VWS V14.01,2013-07-04 08:10:00,
2013-07-04 04:15:00,72.0,71.1,30.20,WNW,285,2.0,4.0,97,0.00,,,0.00,VWS V14.01,2013-07-04 08:15:00,
2013-07-04 04:20:00,72.0,71.1,30.20,WNW,293,5.0,7.0,97,0.00,,,0.00,VWS V14.01,2013-07-04 08:20:00,
2013-07-04 04:25:00,72.0,71.1,30.20,SW,215,1.0,7.0,97,0.00,,,0.00,VWS V14.01,2013-07-04 08:25:00,
2013-07-04 04:30:00,72.1,71.2,30.20,WNW,302,2.0,4.0,97,0.00,,,0.00,VWS V14.01,2013-07-04 08:30:00,
2013-07-04 04:35:00,72.2,71.3,30.20,WSW,245,4.0,7.0,97,0.00,,,0.00,VWS V14.01,2013-07-04 08:35:00,
2013-07-04 04:40:00,72.3,71.4,30.20,West,270,5.0,11.0,97,0.00,,,0.00,VWS V14.01,2013-07-04 08:40:00,
2013-07-04 04:45:00,72.4,71.5,30.20,WNW,288,2.0,11.0,97,0.00,,,0.00,VWS V14.01,2013-07-04 08:45:00,
2013-07-04 04:50:00,72.5,71.6,30.20,WSW,255,4.0,5.0,97,0.00,,,0.00,VWS V14.01,2013-07-04 08:50:00,
2013-07-04 04:55:00,72.5,71.6,30.20,West,259,4.0,7.0,97,0.00,,,0.00,VWS V14.01,2013-07-04 08:55:00,
2013-07-04 05:00:00,72.6,71.7,30.20,West,271,6.0,6.0,97,0.00,,OVC006,0.00,VWS V14.01,2013-07-04 09:00:00,
2013-07-04 05:05:00,72.7,71.5,30.20,SW,224,1.0,8.0,96,0.00,,OVC006,0.00,VWS V14.01,2013-07-04 09:05:00,
2013-07-04 05:10:00,72.7,71.5,30.20,West,267,3.0,5.0,96,0.00,,OVC006,0.00,VWS V14.01,2013-07-04 09:10:00,
2013-07-04 05:15:00,72.7,71.5,30.21,West,271,7.0,9.0,96,0.00,,OVC006,0.00,VWS V14.01,2013-07-04 09:15:00,
2013-07-04 05:20:00,72.7,71.5,30.21,West,269,2.0,8.0,96,0.00,,OVC006,0.00,VWS V14.01,2013-07-04 09:20:00,
2013-07-04 05:25:00,72.7,71.5,30.21,WNW,301,2.0,8.0,96,0.00,,OVC006,0.00,VWS V14.01,2013-07-04 09:25:00,
2013-07-04 05:30:00,72.7,71.5,30.21,SW,232,2.0,7.0,96,0.00,,OVC006,0.00,VWS V14.01,2013-07-04 09:30:00,
2013-07-04 05:35:00,72.8,71.6,30.21,WSW,242,2.0,7.0,96,0.00,,OVC006,0.00,VWS V14.01,2013-07-04 09:35:00,
2013-07-04 05:40:00,72.8,71.6,30.21,West,273,2.0,3.0,96,0.00,,OVC006,0.00,VWS V14.01,2013-07-04 09:40:00,
2013-07-04 05:45:00,72.9,71.7,30.21,West,262,6.0,7.0,96,0.00,,OVC006,0.00,VWS V14.01,2013-07-04 09:45:00,
2013-07-04 05:50:00,72.9,71.7,30.22,WSW,249,3.0,8.0,96,0.00,,OVC006,0.00,VWS V14.01,2013-07-04 09:50:00,
2013-07-04 05:55:00,72.9,71.7,30.22,West,280,2.0,8.0,96,0.00,,OVC006,0.00,VWS V14.01,2013-07-04 09:55:00,
2013-07-04 06:00:00,73.0,71.8,30.21,NNE,19,2.0,3.0,96,0.00,,OVC006,0.00,VWS V14.01,2013-07-04 10:00:00,
2013-07-04 06:05:00,73.1,71.9,30.22,West,274,2.0,5.0,96,0.00,,OVC006,0.00,VWS V14.01,2013-07-04 10:05:00,
2013-07-04 06:10:00,73.1,71.9,30.22,West,262,2.0,3.0,96,0.00,,OVC006,0.00,VWS V14.01,2013-07-04 10:10:00,
2013-07-04 06:15:00,73.2,72.0,30.22,SW,215,2.0,7.0,96,0.00,,OVC006,0.00,VWS V14.01,2013-07-04 10:15:00,
2013-07-04 06:20:00,73.2,72.0,30.21,WSW,240,3.0,4.0,96,0.00,,OVC006,0.00,VWS V14.01,2013-07-04 10:20:00,
2013-07-04 06:25:00,73.4,72.2,30.22,WSW,252,4.0,5.0,96,0.00,,OVC006,0.00,VWS V14.01,2013-07-04 10:25:00,
2013-07-04 06:30:00,73.5,72.3,30.21,WSW,256,4.0,5.0,96,0.00,,OVC006,0.00,VWS V14.01,2013-07-04 10:30:00,
2013-07-04 06:35:00,73.6,72.4,30.22,West,260,1.0,7.0,96,0.00,,OVC006,0.00,VWS V14.01,2013-07-04 10:35:00,
2013-07-04 06:40:00,73.7,72.2,30.22,WSW,252,3.0,4.0,95,0.00,,OVC006,0.00,VWS V14.01,2013-07-04 10:40:00,
2013-07-04 06:45:00,73.8,72.3,30.22,SW,224,4.0,5.0,95,0.00,,OVC006,0.00,VWS V14.01,2013-07-04 10:45:00,
2013-07-04 06:50:00,74.0,72.5,30.22,West,262,4.0,5.0,95,0.00,,OVC006,0.00,VWS V14.01,2013-07-04 10:50:00,
2013-07-04 06:55:00,74.1,72.6,30.22,WSW,242,3.0,7.0,95,0.00,,OVC006,0.00,VWS V14.01,2013-07-04 10:55:00,
2013-07-04 07:00:00,74.3,72.5,30.22,West,262,2.0,3.0,94,0.00,,SCT010,0.00,VWS V14.01,2013-07-04 11:00:00,
2013-07-04 07:05:00,74.5,72.7,30.22,South,186,2.0,6.0,94,0.00,,SCT010,0.00,VWS V14.01,2013-07-04 11:05:00,
2013-07-04 07:10:00,74.7,72.9,30.22,WSW,252,5.0,5.0,94,0.00,,SCT010,0.00,VWS V14.01,2013-07-04 11:10:00,
2013-07-04 07:15:00,74.9,72.7,30.22,WSW,253,3.0,7.0,93,0.00,,SCT010,0.00,VWS V14.01,2013-07-04 11:15:00,
2013-07-04 07:20:00,75.2,73.0,30.23,WNW,297,3.0,4.0,93,0.00,,SCT010,0.00,VWS V14.01,2013-07-04 11:20:00,
2013-07-04 07:25:00,75.4,72.9,30.23,WSW,253,6.0,8.0,92,0.00,,SCT010,0.00,VWS V14.01,2013-07-04 11:25:00,
2013-07-04 07:30:00,75.7,73.2,30.23,West,268,2.0,5.0,92,0.00,,SCT010,0.00,VWS V14.01,2013-07-04 11:30:00,
2013-07-04 07:35:00,76.0,73.5,30.23,West,264,1.0,6.0,92,0.00,,SCT010,0.00,VWS V14.01,2013-07-04 11:35:00,
2013-07-04 07:40:00,76.3,73.5,30.23,West,269,5.0,7.0,91,0.00,,SCT010,0.00,VWS V14.01,2013-07-04 11:40:00,
2013-07-04 07:45:00,76.6,73.8,30.23,WSW,255,1.0,7.0,91,0.00,,SCT010,0.00,VWS V14.01,2013-07-04 11:45:00,
2013-07-04 07:50:00,76.9,73.8,30.23,West,259,1.0,4.0,90,0.00,,SCT010,0.00,VWS V14.01,2013-07-04 11:50:00,
2013-07-04 07:55:00,77.2,74.0,30.23,SW,229,3.0,7.0,90,0.00,,SCT010,0.00,VWS V14.01,2013-07-04 11:55:00,
2013-07-04 08:00:00,77.5,74.0,30.23,SW,221,2.0,4.0,89,0.00,,CLR,0.00,VWS V14.01,2013-07-04 12:00:00,
2013-07-04 08:05:00,77.8,74.3,30.23,WNW,287,6.0,8.0,89,0.00,,CLR,0.00,VWS V14.01,2013-07-04 12:05:00,
2013-07-04 08:10:00,77.9,74.1,30.23,West,269,6.0,7.0,88,0.00,,CLR,0.00,VWS V14.01,2013-07-04 12:10:00,
2013-07-04 08:15:00,78.1,74.3,30.23,SSW,192,2.0,8.0,88,0.00,,CLR,0.00,VWS V14.01,2013-07-04 12:15:00,
2013-07-04 08:20:00,78.3,74.1,30.23,WNW,300,6.0,6.0,87,0.00,,CLR,0.00,VWS V14.01,2013-07-04 12:20:00,
2013-07-04 08:25:00,78.6,74.4,30.23,SSW,208,2.0,9.0,87,0.00,,CLR,0.00,VWS V14.01,2013-07-04 12:25:00,
2013-07-04 08:30:00,78.7,74.5,30.23,West,270,2.0,4.0,87,0.00,,CLR,0.00,VWS V14.01,2013-07-04 12:30:00,
2013-07-04 08:35:00,79.2,74.7,30.22,WSW,255,6.0,7.0,86,0.00,,CLR,0.00,VWS V14.01,2013-07-04 12:35:00,
2013-07-04 08:40:00,79.4,74.8,30.22,West,266,4.0,5.0,86,0.00,,CLR,0.00,VWS V14.01,2013-07-04 12:40:00,
2013-07-04 08:45:00,79.8,74.9,30.22,SW,221,1.0,7.0,85,0.00,,CLR,0.00,VWS V14.01,2013-07-04 12:45:00,
2013-07-04 08:50:00,80.5,74.9,30.22,SSW,203,4.0,5.0,83,0.00,,CLR,0.00,VWS V14.01,2013-07-04 12:50:00,
2013-07-04 08:55:00,81.0,75.7,30.22,West,270,4.0,7.0,84,0.00,,CLR,0.00,VWS V14.01,2013-07-04 12:55:00,
2013-07-04 09:00:00,80.9,75.3,30.22,WSW,249,4.0,4.0,83,0.00,,FEW017,0.00,VWS V14.01,2013-07-04 13:00:00,
2013-07-04 09:05:00,81.2,75.6,30.22,SSW,197,2.0,8.0,83,0.00,,FEW017,0.00,VWS V14.01,2013-07-04 13:05:00,
2013-07-04 09:10:00,81.6,75.6,30.22,SW,226,5.0,5.0,82,0.00,,FEW017,0.00,VWS V14.01,2013-07-04 13:10:00,
2013-07-04 09:15:00,81.8,75.4,30.22,SSW,205,3.0,6.0,81,0.00,,FEW017,0.00,VWS V14.01,2013-07-04 13:15:00,
2013-07-04 09:20:00,81.9,75.1,30.22,SW,232,5.0,7.0,80,0.00,,FEW017,0.00,VWS V14.01,2013-07-04 13:20:00,
2013-07-04 09:25:00,81.9,75.1,30.22,WSW,257,6.0,11.0,80,0.00,,FEW017,0.00,VWS V14.01,2013-07-04 13:25:00,
2013-07-04 09:30:00,82.3,75.9,30.22,WSW,239,3.0,4.0,81,0.00,,FEW017,0.00,VWS V14.01,2013-07-04 13:30:00,
2013-07-04 09:35:00,82.3,75.5,30.22,WNW,284,5.0,10.0,80,0.00,,FEW017,0.00,VWS V14.01,2013-07-04 13:35:00,
2013-07-04 09:40:00,82.4,75.6,30.22,West,262,2.0,6.0,80,0.00,,FEW017,0.00,VWS V14.01,2013-07-04 13:40:00,
2013-07-04 09:45:00,82.5,75.7,30.22,WNW,283,3.0,7.0,80,0.00,,FEW017,0.00,VWS V14.01,2013-07-04 13:45:00,
2013-07-04 09:50:00,82.7,75.5,30.22,West,259,4.0,6.0,79,0.00,,FEW017,0.00,VWS V14.01,2013-07-04 13:50:00,
2013-07-04 09:55:00,82.8,75.2,30.21,WSW,256,3.0,8.0,78,0.00,,FEW017,0.00,VWS V14.01,2013-07-04 13:55:00,
2013-07-04 10:00:00,83.0,75.8,30.21,WNW,283,1.0,4.0,79,0.00,,CLR,0.00,VWS V14.01,2013-07-04 14:00:00,
2013-07-04 10:05:00,83.2,75.6,30.21,SW,218,2.0,8.0,78,0.00,,CLR,0.00,VWS V14.01,2013-07-04 14:05:00,
2013-07-04 10:10:00,83.7,76.1,30.21,WSW,250,6.0,6.0,78,0.00,,CLR,0.00,VWS V14.01,2013-07-04 14:10:00,
2013-07-04 10:15:00,83.7,75.7,30.21,NW,306,3.0,9.0,77,0.00,,CLR,0.00,VWS V14.01,2013-07-04 14:15:00,
2013-07-04 10:20:00,83.7,76.1,30.21,WSW,245,5.0,6.0,78,0.00,,CLR,0.00,VWS V14.01,2013-07-04 14:20:00,
2013-07-04 10:25:00,83.7,75.7,30.21,WSW,255,7.0,8.0,77,0.00,,CLR,0.00,VWS V14.01,2013-07-04 14:25:00,
2013-07-04 10:30:00,84.1,75.7,30.21,WSW,249,3.0,6.0,76,0.00,,CLR,0.00,VWS V14.01,2013-07-04 14:30:00,
2013-07-04 10:35:00,84.4,76.0,30.21,West,269,7.0,9.0,76,0.00,,CLR,0.00,VWS V14.01,2013-07-04 14:35:00,
2013-07-04 10:40:00,84.5,75.3,30.21,WSW,256,2.0,4.0,74,0.00,,CLR,0.00,VWS V14.01,2013-07-04 14:40:00,
2013-07-04 10:45:00,84.5,76.1,30.21,WSW,245,4.0,9.0,76,0.00,,CLR,0.00,VWS V14.01,2013-07-04 14:45:00,
2013-07-04 10:50:00,84.9,76.1,30.21,SSW,203,5.0,8.0,75,0.00,,CLR,0.00,VWS V14.01,2013-07-04 14:50:00,
2013-07-04 10:55:00,85.0,76.2,30.21,South,184,3.0,8.0,75,0.00,,CLR,0.00,VWS V14.01,2013-07-04 14:55:00,
2013-07-04 11:00:00,85.5,75.9,30.21,WSW,245,3.0,8.0,73,0.00,,CLR,0.00,VWS V14.01,2013-07-04 15:00:00,
2013-07-04 11:05:00,85.2,76.0,30.20,West,273,8.0,10.0,74,0.00,,CLR,0.00,VWS V14.01,2013-07-04 15:05:00,
2013-07-04 11:10:00,85.0,75.4,30.20,WNW,302,5.0,9.0,73,0.00,,CLR,0.00,VWS V14.01,2013-07-04 15:10:00,
2013-07-04 11:15:00,85.1,76.3,30.20,West,260,4.0,10.0,75,0.00,,CLR,0.00,VWS V14.01,2013-07-04 15:15:00,
2013-07-04 11:20:00,85.3,76.1,30.20,WNW,285,4.0,6.0,74,0.00,,CLR,0.00,VWS V14.01,2013-07-04 15:20:00,
2013-07-04 11:25:00,85.3,75.2,30.20,WNW,288,5.0,11.0,72,0.00,,CLR,0.00,VWS V14.01,2013-07-04 15:25:00,
2013-07-04 11:30:00,85.3,76.5,30.20,WSW,246,2.0,10.0,75,0.00,,CLR,0.00,VWS V14.01,2013-07-04 15:30:00,
2013-07-04 11:35:00,85.4,75.8,30.20,West,277,8.0,13.0,73,0.00,,CLR,0.00,VWS V14.01,2013-07-04 15:35:00,
2013-07-04 11:40:00,85.2,75.6,30.20,West,262,5.0,10.0,73,0.00,,CLR,0.00,VWS V14.01,2013-07-04 15:40:00,
2013-07-04 11:45:00,84.8,75.6,30.20,SSW,205,3.0,10.0,74,0.00,,CLR,0.00,VWS V14.01,2013-07-04 15:45:00,
2013-07-04 11:50:00,85.2,76.4,30.19,South,175,6.0,9.0,75,0.00,,CLR,0.00,VWS V14.01,2013-07-04 15:50:00,
2013-07-04 11:55:00,85.1,76.7,30.19,SW,236,10.0,10.0,76,0.00,,CLR,0.00,VWS V14.01,2013-07-04 15:55:00,
2013-07-04 12:00:00,84.7,75.9,30.19,SSW,200,4.0,9.0,75,0.00,,CLR,0.00,VWS V14.01,2013-07-04 16:00:00,
2013-07-04 12:05:00,84.5,76.1,30.19,West,260,8.0,12.0,76,0.00,,CLR,0.00,VWS V14.01,2013-07-04 16:05:00,
2013-07-04 12:10:00,84.5,76.9,30.19,SW,217,3.0,10.0,78,0.00,,CLR,0.00,VWS V14.01,2013-07-04 16:10:00,
2013-07-04 12:15:00,84.3,75.9,30.19,WSW,257,8.0,12.0,76,0.00,,CLR,0.00,VWS V14.01,2013-07-04 16:15:00,
2013-07-04 12:20:00,84.2,76.2,30.19,SSE,160,5.0,6.0,77,0.00,,CLR,0.00,VWS V14.01,2013-07-04 16:20:00,
2013-07-04 12:25:00,84.4,76.0,30.19,South,175,4.0,10.0,76,0.00,,CLR,0.00,VWS V14.01,2013-07-04 16:25:00,
2013-07-04 12:30:00,84.8,76.4,30.19,SW,230,7.0,7.0,76,0.00,,CLR,0.00,VWS V14.01,2013-07-04 16:30:00,
2013-07-04 12:35:00,84.9,76.5,30.19,WSW,248,4.0,10.0,76,0.00,,CLR,0.00,VWS V14.01,2013-07-04 16:35:00,
2013-07-04 12:40:00,84.7,76.7,30.19,SW,219,4.0,8.0,77,0.00,,CLR,0.00,VWS V14.01,2013-07-04 16:40:00,
2013-07-04 12:45:00,84.8,76.0,30.19,WSW,245,9.0,11.0,75,0.00,,CLR,0.00,VWS V14.01,2013-07-04 16:45:00,
2013-07-04 12:50:00,85.0,76.6,30.19,South,184,6.0,6.0,76,0.00,,CLR,0.00,VWS V14.01,2013-07-04 16:50:00,
2013-07-04 12:55:00,85.1,76.3,30.19,SSE,165,4.0,11.0,75,0.00,,CLR,0.00,VWS V14.01,2013-07-04 16:55:00,
2013-07-04 13:00:00,84.8,76.4,30.19,SW,230,7.0,8.0,76,0.00,,FEW027,0.00,VWS V14.01,2013-07-04 17:00:00,
2013-07-04 13:05:00,84.7,76.3,30.18,West,273,4.0,11.0,76,0.00,,FEW027,0.00,VWS V14.01,2013-07-04 17:05:00,
2013-07-04 13:10:00,84.7,76.3,30.18,SW,232,2.0,5.0,76,0.00,,FEW027,0.00,VWS V14.01,2013-07-04 17:10:00,
2013-07-04 13:15:00,85.0,76.6,30.18,SSW,195,8.0,12.0,76,0.00,,FEW027,0.00,VWS V14.01,2013-07-04 17:15:00,
2013-07-04 13:20:00,85.1,76.7,30.18,SW,221,5.0,5.0,76,0.00,,FEW027,0.00,VWS V14.01,2013-07-04 17:20:00,
2013-07-04 13:25:00,84.8,76.0,30.18,WNW,283,6.0,12.0,75,0.00,,FEW027,0.00,VWS V14.01,2013-07-04 17:25:00,
2013-07-04 13:30:00,84.9,76.5,30.18,South,184,4.0,4.0,76,0.00,,FEW027,0.00,VWS V14.01,2013-07-04 17:30:00,
2013-07-04 13:35:00,84.8,76.4,30.17,SSW,211,3.0,13.0,76,0.00,,FEW027,0.00,VWS V14.01,2013-07-04 17:35:00,
2013-07-04 13:40:00,85.0,76.6,30.17,SSE,152,11.0,11.0,76,0.00,,FEW027,0.00,VWS V14.01,2013-07-04 17:40:00,
2013-07-04 13:45:00,84.9,76.1,30.17,SE,125,8.0,12.0,75,0.00,,FEW027,0.00,VWS V14.01,2013-07-04 17:45:00,
2013-07-04 13:50:00,85.0,76.2,30.17,SSE,167,10.0,10.0,75,0.00,,FEW027,0.00,VWS V14.01,2013-07-04 17:50:00,
2013-07-04 13:55:00,84.8,75.6,30.17,SW,215,4.0,11.0,74,0.00,,FEW027,0.00,VWS V14.01,2013-07-04 17:55:00,
2013-07-04 14:00:00,84.9,76.1,30.17,South,191,8.0,11.0,75,0.00,,CLR,0.00,VWS V14.01,2013-07-04 18:00:00,
2013-07-04 14:05:00,84.8,75.6,30.17,WSW,245,6.0,12.0,74,0.00,,CLR,0.00,VWS V14.01,2013-07-04 18:05:00,
2013-07-04 14:10:00,84.7,76.3,30.17,SSW,211,2.0,5.0,76,0.00,,CLR,0.00,VWS V14.01,2013-07-04 18:10:00,
2013-07-04 14:15:00,85.3,76.1,30.17,WSW,243,4.0,12.0,74,0.00,,CLR,0.00,VWS V14.01,2013-07-04 18:15:00,
2013-07-04 14:20:00,85.7,76.1,30.16,West,280,3.0,6.0,73,0.00,,CLR,0.00,VWS V14.01,2013-07-04 18:20:00,
2013-07-04 14:25:00,85.7,76.1,30.17,WSW,243,7.0,10.0,73,0.00,,CLR,0.00,VWS V14.01,2013-07-04 18:25:00,
2013-07-04 14:30:00,86.0,75.5,30.17,WSW,249,12.0,12.0,71,0.00,,CLR,0.00,VWS V14.01,2013-07-04 18:30:00,
2013-07-04 14:35:00,86.2,75.7,30.16,SSW,196,8.0,12.0,71,0.00,,CLR,0.00,VWS V14.01,2013-07-04 18:35:00,
2013-07-04 14:40:00,86.1,74.8,30.17,SW,235,8.0,9.0,69,0.00,,CLR,0.00,VWS V14.01,2013-07-04 18:40:00,
2013-07-04 14:45:00,86.3,75.4,30.16,SSW,203,4.0,10.0,70,0.00,,CLR,0.00,VWS V14.01,2013-07-04 18:45:00,
2013-07-04 14:50:00,86.5,75.1,30.16,WNW,282,2.0,7.0,69,0.00,,CLR,0.00,VWS V14.01,2013-07-04 18:50:00,
2013-07-04 14:55:00,86.4,75.0,30.16,South,181,1.0,14.0,69,0.00,,CLR,0.00,VWS V14.01,2013-07-04 18:55:00,
2013-07-04 15:00:00,86.2,74.8,30.16,SW,222,4.0,12.0,69,0.00,,CLR,0.00,VWS V14.01,2013-07-04 19:00:00,
2013-07-04 15:05:00,86.1,75.2,30.16,SW,235,10.0,13.0,70,0.00,,CLR,0.00,VWS V14.01,2013-07-04 19:05:00,
2013-07-04 15:10:00,85.7,74.8,30.16,West,262,7.0,10.0,70,0.00,,CLR,0.00,VWS V14.01,2013-07-04 19:10:00,
2013-07-04 15:15:00,85.6,74.3,30.16,SSE,159,11.0,12.0,69,0.00,,CLR,0.00,VWS V14.01,2013-07-04 19:15:00,
2013-07-04 15:20:00,85.4,74.9,30.15,WNW,288,3.0,8.0,71,0.00,,CLR,0.00,VWS V14.01,2013-07-04 19:20:00,
2013-07-04 15:25:00,85.6,75.1,30.15,WNW,297,7.0,13.0,71,0.00,,CLR,0.00,VWS V14.01,2013-07-04 19:25:00,
2013-07-04 15:30:00,85.3,74.8,30.15,South,174,11.0,13.0,71,0.00,,CLR,0.00,VWS V14.01,2013-07-04 19:30:00,
2013-07-04 15:35:00,85.1,75.1,30.15,West,269,3.0,13.0,72,0.00,,CLR,0.00,VWS V14.01,2013-07-04 19:35:00,
2013-07-04 15:40:00,85.3,75.2,30.15,West,269,7.0,10.0,72,0.00,,CLR,0.00,VWS V14.01,2013-07-04 19:40:00,
2013-07-04 15:45:00,85.2,75.2,30.15,WSW,245,4.0,14.0,72,0.00,,CLR,0.00,VWS V14.01,2013-07-04 19:45:00,
2013-07-04 15:50:00,85.5,75.4,30.15,West,265,7.0,14.0,72,0.00,,CLR,0.00,VWS V14.01,2013-07-04 19:50:00,
2013-07-04 15:55:00,85.3,75.2,30.15,WSW,257,10.0,14.0,72,0.00,,CLR,0.00,VWS V14.01,2013-07-04 19:55:00,
2013-07-04 16:00:00,85.5,75.4,30.15,WNW,283,5.0,9.0,72,0.00,,CLR,0.00,VWS V14.01,2013-07-04 20:00:00,
2013-07-04 16:05:00,85.4,75.3,30.15,WSW,250,9.0,13.0,72,0.00,,CLR,0.00,VWS V14.01,2013-07-04 20:05:00,
2013-07-04 16:10:00,85.5,75.9,30.15,West,274,7.0,7.0,73,0.00,,CLR,0.00,VWS V14.01,2013-07-04 20:10:00,
2013-07-04 16:15:00,85.4,75.3,30.15,SSW,201,11.0,15.0,72,0.00,,CLR,0.00,VWS V14.01,2013-07-04 20:15:00,
2013-07-04 16:20:00,85.3,75.7,30.15,WSW,242,3.0,10.0,73,0.00,,CLR,0.00,VWS V14.01,2013-07-04 20:20:00,
2013-07-04 16:25:00,85.0,75.4,30.15,South,176,8.0,13.0,73,0.00,,CLR,0.00,VWS V14.01,2013-07-04 20:25:00,
2013-07-04 16:30:00,85.1,75.5,30.15,WSW,245,2.0,10.0,73,0.00,,CLR,0.00,VWS V14.01,2013-07-04 20:30:00,
2013-07-04 16:35:00,85.0,75.8,30.14,SW,214,4.0,14.0,74,0.00,,CLR,0.00,VWS V14.01,2013-07-04 20:35:00,
2013-07-04 16:40:00,85.1,75.9,30.14,SW,226,6.0,6.0,74,0.00,,CLR,0.00,VWS V14.01,2013-07-04 20:40:00,
2013-07-04 16:45:00,85.5,75.9,30.14,SSW,201,4.0,7.0,73,0.00,,CLR,0.00,VWS V14.01,2013-07-04 20:45:00,
2013-07-04 16:50:00,85.2,75.2,30.14,WSW,252,6.0,6.0,72,0.00,,CLR,0.00,VWS V14.01,2013-07-04 20:50:00,
2013-07-04 16:55:00,85.0,75.4,30.14,South,174,4.0,13.0,73,0.00,,CLR,0.00,VWS V14.01,2013-07-04 20:55:00,
2013-07-04 17:00:00,84.6,75.0,30.14,SW,221,7.0,9.0,73,0.00,,CLR,0.00,VWS V14.01,2013-07-04 21:00:00,
2013-07-04 17:05:00,84.8,75.6,30.13,WNW,293,3.0,9.0,74,0.00,,CLR,0.00,VWS V14.01,2013-07-04 21:05:00,
2013-07-04 17:10:00,84.7,75.1,30.13,WSW,250,2.0,4.0,73,0.00,,CLR,0.00,VWS V14.01,2013-07-04 21:10:00,
2013-07-04 17:15:00,84.8,75.6,30.13,SW,225,9.0,11.0,74,0.00,,CLR,0.00,VWS V14.01,2013-07-04 21:15:00,
2013-07-04 17:20:00,84.6,75.0,30.13,WNW,291,2.0,10.0,73,0.00,,CLR,0.00,VWS V14.01,2013-07-04 21:20:00,
2013-07-04 17:25:00,84.3,75.1,30.14,West,265,8.0,17.0,74,0.00,,CLR,0.00,VWS V14.01,2013-07-04 21:25:00,
2013-07-04 17:30:00,84.0,74.8,30.14,WSW,238,13.0,13.0,74,0.00,,CLR,0.00,VWS V14.01,2013-07-04 21:30:00,
2013-07-04 17:35:00,83.8,75.0,30.14,WNW,293,7.0,13.0,75,0.00,,CLR,0.00,VWS V14.01,2013-07-04 21:35:00,
2013-07-04 17:40:00,83.9,75.5,30.14,SE,146,6.0,6.0,76,0.00,,CLR,0.00,VWS V14.01,2013-07-04 21:40:00,
2013-07-04 17:45:00,83.9,75.1,30.14,WSW,253,3.0,13.0,75,0.00,,CLR,0.00,VWS V14.01,2013-07-04 21:45:00,
2013-07-04 17:50:00,83.7,75.3,30.14,SW,228,6.0,6.0,76,0.00,,CLR,0.00,VWS V14.01,2013-07-04 21:50:00,
2013-07-04 17:55:00,83.8,75.4,30.14,SE,139,8.0,13.0,76,0.00,,CLR,0.00,VWS V14.01,2013-07-04 21:55:00,
2013-07-04 18:00:00,83.3,74.9,30.14,SW,221,3.0,11.0,76,0.00,,CLR,0.00,VWS V14.01,2013-07-04 22:00:00,
2013-07-04 18:05:00,82.8,74.9,30.14,SW,217,6.0,11.0,77,0.00,,CLR,0.00,VWS V14.01,2013-07-04 22:05:00,
2013-07-04 18:10:00,82.6,74.7,30.14,WSW,242,5.0,5.0,77,0.00,,CLR,0.00,VWS V14.01,2013-07-04 22:10:00,
2013-07-04 18:15:00,82.0,74.5,30.14,WSW,245,13.0,15.0,78,0.00,,CLR,0.00,VWS V14.01,2013-07-04 22:15:00,
2013-07-04 18:20:00,81.7,74.6,30.14,WSW,238,8.0,8.0,79,0.00,,CLR,0.00,VWS V14.01,2013-07-04 22:20:00,
2013-07-04 18:25:00,82.0,74.8,30.14,SW,236,6.0,12.0,79,0.00,,CLR,0.00,VWS V14.01,2013-07-04 22:25:00,
2013-07-04 18:30:00,81.5,74.4,30.15,West,273,15.0,15.0,79,0.00,,CLR,0.00,VWS V14.01,2013-07-04 22:30:00,
2013-07-04 18:35:00,81.1,74.3,30.14,SE,130,3.0,15.0,80,0.00,,CLR,0.00,VWS V14.01,2013-07-04 22:35:00,
2013-07-04 18:40:00,81.2,74.1,30.15,WSW,243,7.0,12.0,79,0.00,,CLR,0.00,VWS V14.01,2013-07-04 22:40:00,
2013-07-04 18:45:00,80.9,73.8,30.14,SSW,207,2.0,15.0,79,0.00,,CLR,0.00,VWS V14.01,2013-07-04 22:45:00,
2013-07-04 18:50:00,80.5,73.4,30.15,WSW,250,5.0,10.0,79,0.00,,CLR,0.00,VWS V14.01,2013-07-04 22:50:00,
2013-07-04 18:55:00,80.1,73.4,30.15,West,269,6.0,15.0,80,0.00,,CLR,0.00,VWS V14.01,2013-07-04 22:55:00,
2013-07-04 19:00:00,79.9,73.2,30.15,West,275,7.0,12.0,80,0.00,,CLR,0.00,VWS V14.01,2013-07-04 23:00:00,
2013-07-04 19:05:00,79.8,73.4,30.15,WSW,256,8.0,12.0,81,0.00,,CLR,0.00,VWS V14.01,2013-07-04 23:05:00,
2013-07-04 19:10:00,79.6,73.3,30.15,SSW,211,8.0,11.0,81,0.00,,CLR,0.00,VWS V14.01,2013-07-04 23:10:00,
2013-07-04 19:15:00,79.2,73.2,30.15,SSW,205,8.0,13.0,82,0.00,,CLR,0.00,VWS V14.01,2013-07-04 23:15:00,
2013-07-04 19:20:00,78.8,72.8,30.15,West,277,4.0,11.0,82,0.00,,CLR,0.00,VWS V14.01,2013-07-04 23:20:00,
2013-07-04 19:25:00,78.6,73.0,30.15,WSW,252,2.0,13.0,83,0.00,,CLR,0.00,VWS V14.01,2013-07-04 23:25:00,
2013-07-04 19:30:00,78.3,72.7,30.15,SSW,198,3.0,6.0,83,0.00,,CLR,0.00,VWS V14.01,2013-07-04 23:30:00,
2013-07-04 19:35:00,78.0,72.8,30.15,WNW,288,3.0,13.0,84,0.00,,CLR,0.00,VWS V14.01,2013-07-04 23:35:00,
2013-07-04 19:40:00,77.7,72.5,30.15,South,173,3.0,6.0,84,0.00,,CLR,0.00,VWS V14.01,2013-07-04 23:40:00,
2013-07-04 19:45:00,77.5,72.3,30.15,West,266,5.0,11.0,84,0.00,,CLR,0.00,VWS V14.01,2013-07-04 23:45:00,
2013-07-04 19:50:00,77.2,72.3,30.16,South,172,6.0,10.0,85,0.00,,CLR,0.00,VWS V14.01,2013-07-04 23:50:00,
2013-07-04 19:55:00,77.0,72.2,30.16,SW,226,4.0,10.0,85,0.00,,CLR,0.00,VWS V14.01,2013-07-04 23:55:00,
2013-07-04 20:00:00,76.7,72.2,30.16,SSW,205,3.0,6.0,86,0.00,,CLR,0.00,VWS V14.01,2013-07-05 00:00:00,
2013-07-04 20:05:00,76.4,71.9,30.16,SSW,195,1.0,12.0,86,0.00,,CLR,0.00,VWS V14.01,2013-07-05 00:05:00,
2013-07-04 20:10:00,76.1,71.9,30.16,SSW,195,4.0,5.0,87,0.00,,CLR,0.00,VWS V14.01,2013-07-05 00:10:00,
2013-07-04 20:15:00,75.9,71.8,30.16,WSW,249,6.0,9.0,87,0.00,,CLR,0.00,VWS V14.01,2013-07-05 00:15:00,
2013-07-04 20:20:00,75.8,71.7,30.16,WSW,253,4.0,4.0,87,0.00,,CLR,0.00,VWS V14.01,2013-07-05 00:20:00,
2013-07-04 20:25:00,75.7,71.9,30.16,WSW,257,9.0,11.0,88,0.00,,CLR,0.00,VWS V14.01,2013-07-05 00:25:00,
2013-07-04 20:30:00,75.6,71.8,30.16,West,276,3.0,8.0,88,0.00,,CLR,0.00,VWS V14.01,2013-07-05 00:30:00,
2013-07-04 20:35:00,75.5,71.7,30.16,SW,225,1.0,11.0,88,0.00,,CLR,0.00,VWS V14.01,2013-07-05 00:35:00,
2013-07-04 20:40:00,75.3,71.5,30.16,West,264,4.0,7.0,88,0.00,,CLR,0.00,VWS V14.01,2013-07-05 00:40:00,
2013-07-04 20:45:00,75.2,71.7,30.16,SW,225,0.0,7.0,89,0.00,,CLR,0.00,VWS V14.01,2013-07-05 00:45:00,
2013-07-04 20:50:00,75.1,71.6,30.16,WSW,248,6.0,7.0,89,0.00,,CLR,0.00,VWS V14.01,2013-07-05 00:50:00,
2013-07-04 20:55:00,75.0,71.5,30.16,West,264,3.0,9.0,89,0.00,,CLR,0.00,VWS V14.01,2013-07-05 00:55:00,
2013-07-04 21:00:00,74.9,71.4,30.16,WSW,240,4.0,4.0,89,0.00,,CLR,0.00,VWS V14.01,2013-07-05 01:00:00,
2013-07-04 21:05:00,74.7,71.2,30.17,SSW,207,5.0,8.0,89,0.00,,CLR,0.00,VWS V14.01,2013-07-05 01:05:00,
2013-07-04 21:10:00,74.7,71.2,30.17,WNW,283,8.0,8.0,89,0.00,,CLR,0.00,VWS V14.01,2013-07-05 01:10:00,
2013-07-04 21:15:00,74.6,71.2,30.17,WSW,256,4.0,11.0,89,0.00,,CLR,0.00,VWS V14.01,2013-07-05 01:15:00,
2013-07-04 21:20:00,74.6,71.2,30.17,SSW,200,2.0,6.0,89,0.00,,CLR,0.00,VWS V14.01,2013-07-05 01:20:00,
2013-07-04 21:25:00,74.5,71.1,30.17,WSW,242,2.0,8.0,89,0.00,,CLR,0.00,VWS V14.01,2013-07-05 01:25:00,
2013-07-04 21:30:00,74.4,70.9,30.17,WSW,239,2.0,8.0,89,0.00,,CLR,0.00,VWS V14.01,2013-07-05 01:30:00,
2013-07-04 21:35:00,74.4,70.9,30.17,SW,224,8.0,10.0,89,0.00,,CLR,0.00,VWS V14.01,2013-07-05 01:35:00,
2013-07-04 21:40:00,74.2,71.1,30.17,NW,314,7.0,11.0,90,0.00,,CLR,0.00,VWS V14.01,2013-07-05 01:40:00,
2013-07-04 21:45:00,74.2,70.8,30.17,West,260,2.0,11.0,89,0.00,,CLR,0.00,VWS V14.01,2013-07-05 01:45:00,
2013-07-04 21:50:00,74.2,70.8,30.17,SW,225,8.0,8.0,89,0.00,,CLR,0.00,VWS V14.01,2013-07-05 01:50:00,
2013-07-04 21:55:00,74.2,71.1,30.17,West,278,6.0,8.0,90,0.00,,CLR,0.00,VWS V14.01,2013-07-05 01:55:00,
2013-07-04 22:00:00,74.2,71.1,30.17,WSW,248,2.0,3.0,90,0.00,,CLR,0.00,VWS V14.01,2013-07-05 02:00:00,
2013-07-04 22:05:00,74.1,71.0,30.17,WSW,255,2.0,10.0,90,0.00,,CLR,0.00,VWS V14.01,2013-07-05 02:05:00,
2013-07-04 22:10:00,74.1,71.0,30.17,South,186,8.0,10.0,90,0.00,,CLR,0.00,VWS V14.01,2013-07-05 02:10:00,
2013-07-04 22:15:00,73.9,70.8,30.17,WSW,250,5.0,10.0,90,0.00,,CLR,0.00,VWS V14.01,2013-07-05 02:15:00,
2013-07-04 22:20:00,73.8,70.7,30.17,WSW,242,4.0,7.0,90,0.00,,CLR,0.00,VWS V14.01,2013-07-05 02:20:00,
2013-07-04 22:25:00,73.8,71.0,30.17,WNW,291,11.0,11.0,91,0.00,,CLR,0.00,VWS V14.01,2013-07-05 02:25:00,
2013-07-04 22:30:00,73.7,70.9,30.17,WSW,246,1.0,2.0,91,0.00,,CLR,0.00,VWS V14.01,2013-07-05 02:30:00,
2013-07-04 22:35:00,73.8,71.0,30.17,SSE,158,4.0,12.0,91,0.00,,CLR,0.00,VWS V14.01,2013-07-05 02:35:00,
2013-07-04 22:40:00,73.8,71.0,30.17,SW,226,4.0,7.0,91,0.00,,CLR,0.00,VWS V14.01,2013-07-05 02:40:00,
2013-07-04 22:45:00,73.9,70.8,30.17,SW,215,4.0,9.0,90,0.00,,CLR,0.00,VWS V14.01,2013-07-05 02:45:00,
2013-07-04 22:50:00,73.9,70.8,30.17,WSW,242,2.0,2.0,90,0.00,,CLR,0.00,VWS V14.01,2013-07-05 02:50:00,
2013-07-04 22:55:00,73.9,70.8,30.17,West,276,2.0,5.0,90,0.00,,CLR,0.00,VWS V14.01,2013-07-05 02:55:00,
2013-07-04 23:00:00,73.8,70.7,30.17,West,266,5.0,6.0,90,0.00,,CLR,0.00,VWS V14.01,2013-07-05 03:00:00,
2013-07-04 23:05:00,73.8,70.7,30.17,SSW,193,2.0,6.0,90,0.00,,CLR,0.00,VWS V14.01,2013-07-05 03:05:00,
2013-07-04 23:10:00,73.7,70.9,30.17,SW,228,4.0,6.0,91,0.00,,CLR,0.00,VWS V14.01,2013-07-05 03:10:00,
2013-07-04 23:15:00,73.7,70.9,30.17,West,264,2.0,7.0,91,0.00,,CLR,0.00,VWS V14.01,2013-07-05 03:15:00,
2013-07-04 23:20:00,73.7,70.9,30.17,West,261,5.0,10.0,91,0.00,,CLR,0.00,VWS V14.01,2013-07-05 03:20:00,
2013-07-04 23:25:00,73.7,70.9,30.16,West,264,2.0,10.0,91,0.00,,CLR,0.00,VWS V14.01,2013-07-05 03:25:00,
2013-07-04 23:30:00,73.6,70.8,30.16,South,173,0.0,0.0,91,0.00,,CLR,0.00,VWS V14.01,2013-07-05 03:30:00,
2013-07-04 23:35:00,73.5,70.7,30.17,SSW,205,1.0,8.0,91,0.00,,CLR,0.00,VWS V14.01,2013-07-05 03:35:00,
2013-07-04 23:40:00,73.5,70.7,30.17,SW,225,1.0,5.0,91,0.00,,CLR,0.00,VWS V14.01,2013-07-05 03:40:00,
2013-07-04 23:45:00,73.4,70.6,30.17,WNW,289,4.0,6.0,91,0.00,,CLR,0.00,VWS V14.01,2013-07-05 03:45:00,
2013-07-04 23:50:00,73.3,70.5,30.16,SSW,203,2.0,6.0,91,0.00,,CLR,0.00,VWS V14.01,2013-07-05 03:50:00,
2013-07-04 23:55:00,73.2,70.4,30.17,West,259,1.0,6.0,91,0.00,,CLR,0.00,VWS V14.01,2013-07-05 03:55:00,